Regional Weather Roundup
Issued by NWS

Home | Current Version | Previous Version | Text Only | Print | Product List | Glossary Off
Versions: 1 2 3 4 5 6 7 8 9 10 11 12 13 14 15 16 17 18 19 20 21 22 23 24 25 26 27 28 29 30 31 32 33 34 35 36 37 38 39 40 41 42 43 44 45 46 47 48 49 50

000
ASUS45 KTFX 111910
RWRMT
MONTANA REGIONAL WEATHER ROUNDUP
NATIONAL WEATHER SERVICE GREAT FALLS MT
1200 PM MST THU FEB 11 2016

NOTE: "FAIR" INDICATES FEW OR NO CLOUDS BELOW 12000 FEET WITH NO
SIGNIFICANT WEATHER AND/OR OBSTRUCTIONS TO VISIBILITY.

MTZ001>007-043-112000-
WEST OF THE DIVIDE

CITY           SKY/WX    TMP DP  RH WIND       PRES   REMARKS
KALISPELL      PTSUNNY   41  32  70 CALM      30.29S
MISSOULA       PTSUNNY   41  32  70 CALM      30.31F
BUTTE          CLOUDY    45  26  47 CALM      30.29F
MULLAN PASS    CLOUDY    34  31  88 CALM      30.29R
ANACONDA         N/A     43  30  61 N8        30.27S
DEER LODGE       N/A     43  32  65 N3        30.30S
HAMILTON         N/A     48  32  53 NW8       30.29S
PLAINS           N/A     41  35  79 CALM      30.31R
THOMPSON FALLS   N/A     42  37  82 W1        30.35S
$$

MTZ008-052>055-112000-
SOUTHWEST MONTANA

CITY           SKY/WX    TMP DP  RH WIND       PRES   REMARKS
BOZEMAN        CLOUDY    41  27  57 NW3       30.27F
DILLON         CLOUDY    42  27  55 SW20      30.29F
ENNIS          CLOUDY    43  27  52 S18       30.35F
TWIN BRIDGES     N/A     38  28  67 CALM      30.26F
$$

MTZ009-010-012-014-046-048-049-054-112000-
EAST SLOPES AND CENTRAL MONTANA

CITY           SKY/WX    TMP DP  RH WIND       PRES   REMARKS
CUT BANK       PTSUNNY   53  17  24 NW20G29   30.18R
GREAT FALLS    SUNNY     56  20  24 W16G22    30.19R
HELENA           N/A    N/A N/A N/A MISG      30.25F
CHOTEAU          N/A     57  10  15 NW20      30.20R
CONRAD           N/A     55  18  23 NW18      30.18S
$$

MTZ011-013-016-021-045-047-050-051-112000-
NORTH CENTRAL MONTANA

CITY           SKY/WX    TMP DP  RH WIND       PRES   REMARKS
HAVRE          CLOUDY    39  32  76 W7        30.19R
LEWISTOWN      CLOUDY    50  27  40 NW12G29   30.16R
N BAR RANCH      N/A     50  25  37 NW24G36   30.15R
CHINOOK          N/A     39  32  75 W8        30.19R
$$

MTZ017>020-022>027-061-062-112000-
NORTHEAST MONTANA

CITY           SKY/WX    TMP DP  RH WIND       PRES   REMARKS
GLASGOW        CLOUDY    30  24  78 E7        30.14S WCI  23
JORDAN           N/A     42  33  70 NW14      30.12R
SIDNEY         CLOUDY    27  21  80 N10       30.15R WCI  17
WOLF POINT     CLOUDY    29  21  72 E9        30.17S WCI  20
PLENTYWOOD       N/A     19  16  86 NE5       30.16R
POPLAR           N/A     25  19  80 NE9       30.17S WCI  15
SCOBEY           N/A     22  12  65 N1        30.13R
$$

MTZ028>42-056>058-112000-
SOUTHCENTRAL AND SOUTHEAST MONTANA

CITY           SKY/WX    TMP DP  RH WIND       PRES   REMARKS
BAKER          CLOUDY    34  30  85 NW17      30.06R WCI  23
BILLINGS       MOSUNNY   58  19  22 NW24G35   30.17R
LIVINGSTON     SUNNY     57  20  23 W26       30.21R
MILES CITY     PTSUNNY   49  31  49 NW25G31   30.09R
FORSYTH          N/A     55  27  33 W24G35    30.09S
LAUREL           N/A     59  18  20 W21       30.14R
ROUNDUP          N/A     56  21  25 NW20      30.05S
$$

REGIONAL REPORTS...DAKOTAS

CITY           SKY/WX    TMP DP  RH WIND       PRES   REMARKS
WILLISTON      LGT SNOW  25  19  78 NE6       30.16R WCI  18
MINOT          CLOUDY    20  10  65 N5        30.17S HAZE
DICKINSON      LGT SNOW  24  19  81 NE9       30.06R WCI  14
BEACH          LGT SNOW  28  28 100 NE8       30.11R WCI  20
CROSBY           N/A     18  14  86 E6        30.20S WCI   9
TIOGA          LGT SNOW  18  18 100 E3        30.19S
WATFORD CITY   LGT SNOW  23  19  86 NE3       30.14S
BISMARCK       LGT SNOW  25  18  74 NE5       30.14R
GRAND FORKS    CLOUDY    13   4  67 SW8       30.23F WCI   2
FARGO          CLOUDY    14  -2  49 SW6       30.23F WCI   5
BUFFALO SD       N/A     41  35  79 NW31G37   29.93R
RAPID CITY     SUNNY     57  25  29 NW40G52   29.99S
$$

REGIONAL REPORTS...WYOMING/IDAHO/WASHINGTON

CITY           SKY/WX    TMP DP  RH WIND       PRES   REMARKS
GILLETTE       CLOUDY    51  29  42 NW18G28   30.11S
SHERIDAN       CLOUDY    56  27  32 NW30      30.16R
BUFFALO WY     CLOUDY    50  27  40 N28G37    30.13S
CODY           CLOUDY    55  19  24 N15G22    30.17S
YELLOWSTONE LA   N/A     35  20  54 E8        30.36S WCI  29
IDAHO FALLS    CLOUDY    23  19  85 N8        30.44S WCI  14
SALMON         CLOUDY    21  18  86 CALM      30.44S
BOISE          SUNNY     41  31  67 S5        30.39F
SPOKANE        FOG       37  36  96 NE12      30.31S VSB 1   WCI  29
$$

REGIONAL REPORTS...ALBERTA

CITY           SKY/WX    TMP DP  RH WIND       PRES   REMARKS
EDMONTON       CLOUDY    21  16  79 NE6       30.20R WCI  14
CALGARY        PTSUNNY   43  34  70 N9        30.18R
LETHBRIDGE     PTSUNNY   34  32  93 W6        30.22S WCI  29
MEDICINE HAT   CLOUDY    32  30  93 W8        30.23R WCI  25
WATERTON GATE    N/A     48  23  37 SW18G25     N/A
MILK RIVER       N/A     41  30  65 NW12        N/A
ONEFOUR          N/A     30  30 100 NW24        N/A  WCI  16
$$

REGIONAL REPORTS...SASKATCHEWAN

CITY           SKY/WX    TMP DP  RH WIND       PRES   REMARKS
SWIFT CURRENT  CLOUDY    19  16  86 E6        30.16R WCI  11
REGINA         FLURRIES  18  12  79 N7        30.22R WCI   8
SASKATOON      PTSUNNY    9   1  72 NE6       30.33R WCI  -1
CYPRESS HILLS    N/A     25  23  93 NW7         N/A  WCI  17
VAL MARIE        N/A     27  23  86 NE6         N/A  WCI  20
ROCKGLEN         N/A     19  16  86 N3          N/A
ASSINIBOIA       N/A     19  16  86 NE6         N/A  WCI  11
$$



USA.gov is the U.S. government's official web portal to all federal, state and local government web resources and services.